Regional Weather Roundup
Issued by NWS Grand Forks, ND

Home | Current Version | Previous Version | Text Only | Print | Product List | Glossary Off
Versions: 1 2 3 4 5 6 7 8 9 10 11 12 13 14 15 16 17 18 19 20 21 22 23 24 25 26 27 28 29 30 31 32 33 34 35 36 37 38 39 40 41 42 43 44 45 46 47 48 49 50

000
ASUS43 KFGF 292231
RWRFGF
PRAIRIE TO PINES  WEATHER ROUNDUP
NATIONAL WEATHER SERVICE EASTERN NORTH DAKOTA/GRAND FORKS ND
500 PM CDT WED MAR 29 2017

 **SATELLITE DATA USED TO AUGMENT SKY COVER AT AUTOMATED STATIONS**
 *****  WEATHER ACROSS EASTERN NORTH DAKOTA  *****

CITY           SKY/WX    TMP DP  RH WIND       PRES   REMARKS
GRAND FORKS    PTSUNNY   60  46  59 S15       30.02F
GRAND FRKS AFB FAIR      61  42  49 S15       30.02F
DEVILS LAKE    CLOUDY    54  38  54 SW13      29.98F
FARGO          FAIR      60  39  45 S18       30.06F
WAHPETON ARPT  FAIR      55  32  41 SE16      30.08F
$$

 ***** WEATHER ACROSS CENTRAL AND WESTERN NORTH DAKOTA  *****

CITY           SKY/WX    TMP DP  RH WIND       PRES   REMARKS
BISMARCK       FAIR      63  37  38 S16       29.96F
MINOT          CLOUDY    61  38  42 S13       29.89F
JAMESTOWN      FAIR      61  33  35 S18G24    29.99F
MINOT AFB      CLOUDY    55  42  63 SW8       29.89F
GARRISON         N/A     57  39  51 S8        29.90F
WILLISTON      FAIR      62  29  28 W13       29.89F
DICKINSON      PTSUNNY   60  30  32 S13       29.89F
HETTINGER      PTSUNNY   61  28  28 W7        29.95F
$$

 *****  OTHER AIRPORT OBSERVATIONS IN OUR AREA  *****

CITY           SKY/WX    TMP DP  RH WIND       PRES   REMARKS
WALHALLA       NOT AVBL
GRAFTON AIRPOR FAIR      59  45  58 S17       30.02F
VALLEY CITY AR FAIR      63  30  29 S17       30.02F
CANDO          NOT AVBL
CAVALIER APRT  FAIR      57  45  62 S13       29.98F
GWINNER        CLEAR     61  32  33 MISG      30.03F
SHEYENNE NWR     N/A     61  33  35 S14       29.95S
ROLLA          CLOUDY    45  45 100 S9        29.94F
 ***** THE ABOVE OBSERVATIONS ARE NON NWS ARE NOT QUALITY
       CONTROLLED AND MAY MIS-REPORT RAIN FOR SNOW...
$$

  *****  WEATHER ACROSS NORTHERN MINNESOTA  *****

CITY           SKY/WX    TMP DP  RH WIND       PRES   REMARKS
FLAG ISLAND    FAIR      52  30  43 SE7       30.05F
WARROAD        FAIR      61  43  51 S9        30.05F
ROSEAU         FAIR      61  43  51 S12       30.04F
HALLOCK        FAIR      57  48  72 S12       30.02F
THF RVR FALLS  FAIR      58  36  43 S13       30.06F
BAUDETTE       FAIR      60  31  33 S13       30.07F
WASKISH        PTSUNNY   57  30  35 S8G16     30.10S
CROOKSTON      FAIR      61  39  44 S18       30.04F
STEPHEN NDAWN    N/A     57  46  67 S12         N/A
GREENBUSH NDAW   N/A     57  43  58 SW12        N/A
$$
  *****  WEATHER ACROSS CENTRAL AND WEST MINNESOTA  *****

CITY           SKY/WX    TMP DP  RH WIND       PRES   REMARKS
FOSSTON        FAIR      59  34  38 S16       30.08F
BEMIDJI        FAIR      55  32  42 SE14      30.10F
PARK RAPIDS    FAIR      56  29  35 S15       30.11F
ELBOW LAKE     FAIR      54  33  44 S16       30.11F
WADENA         FAIR      54  34  47 SE10      30.11F
DETROIT LAKES  FAIR      55  28  35 S13       30.10F
MOORHEAD       FAIR      57  39  51 S15G21    30.08F
FERGUS FALLS   FAIR      57  32  38 S16       30.12F
MORRIS MN      FAIR      54  36  50 SE15      30.10F
STAPLES        FAIR      52  28  40 SE7       30.13F
$$
  *****  WEATHER ELSEWHERE ACROSS MINNESOTA  *****

CITY           SKY/WX    TMP DP  RH WIND       PRES   REMARKS
DULUTH         FAIR      37  30  75 E12       30.22F
INTRNTL FALLS  FAIR      53  32  44 SE13      30.13F
ELY            FAIR      43  25  49 SE9       30.21F
CLOQUET        FAIR      36  28  75 E9        30.22F
WHEATON        FAIR      55  30  38 SE17      30.10S
BRAINERD       FAIR      50  32  50 VRB5      30.16F
HIBBING        FAIR      44  30  57 SE12      30.19F
ALEXANDRIA     FAIR      52  34  50 S12       30.13F
SAINT CLOUD    PTSUNNY   51  36  56 SE12      30.15F
MINNEAPOLIS    CLOUDY    48  36  63 SE12G21   30.17F
$$

  *****  WEATHER ACROSS SOUTH DAKOTA  *****

CITY           SKY/WX    TMP DP  RH WIND       PRES   REMARKS
SIOUX FALLS    LGT RAIN  43  40  89 E24G33    30.05F
BROOKINGS      CLOUDY    47  36  65 E20G25    30.07S
WATERTOWN      FAIR      51  33  50 SE16G23   30.07S
HURON          PTSUNNY   55  36  48 SE12      30.04F
SISSETON         N/A     58  35  42 S16       30.06F
ABERDEEN       FAIR      60  29  30 SE14      30.04S
MITCHELL       PTSUNNY   53  35  50 E18G26    30.05F
PIERRE         FAIR      59  34  39 SE15      29.99F
MOBRIDGE       FAIR      63  28  26 S9        29.96F
RAPID CITY     PTSUNNY   56  37  49 NE9       29.97F
$$

  *****  SOME WEATHER IN NEARBY STATES *****

CITY           SKY/WX    TMP DP  RH WIND       PRES   REMARKS
GLASGOW MT     FAIR      60  26  27 SW14      29.88F
GREAT FALLS MT FAIR      55  33  43 SW21      29.83F
CHEYENNE WY    FAIR      53  24  32 N20G29    29.99F
SCOTTSBLUFF NE FAIR      56  37  49 N12       29.96F
OMAHA NE       LGT RAIN  44  39  82 NE22G28   29.87F FOG
DES MOINES IA  LGT RAIN  45  42  89 E17G29    29.89S
DAVENPORT IA   LGT RAIN  46  41  82 E17G25    30.00R
CHICAGO IL     CLOUDY    47  35  63 NE20      30.09F
EAU CLAIRE WI  CLOUDY    49  33  54 E7        30.18F
LA CROSSE WI   CLOUDY    47  37  68 E10       30.18S
$$

  *****  SOME NATIONAL WEATHER *****

CITY           SKY/WX    TMP DP  RH WIND       PRES   REMARKS
LA GUARDIA NY  FAIR      56  27  32 NW17      30.07R
RALEIGH NC     PTSUNNY   70  50  49 SE3       30.04F
ATLANTA GA     FAIR      84  56  38 CALM      29.98F
NEW ORLEANS LA PTSUNNY   80  66  62 SE17G25   29.89F
OKLAHOMA CITY  PTSUNNY   58  46  64 W16G26    29.74R
ALBUQUERQUE NM PTSUNNY   61  32  33 N8        29.97S
SALT LAKE CITY FAIR      56  33  42 N7        30.16F
LOS ANGELES CA FAIR      74  46  36 SW9       30.01F
BOISE ID       CLOUDY    60  36  40 E12       30.04F
SEATTLE WA     PTSUNNY   52  49  89 SW18G29   29.88R
$$

*** WEATHER ACROSS MANITOBA...SASKATCHEWAN AND ONTARIO ***
                ***ONTARIO***

CITY           SKY/WX    TMP DP  RH WIND       PRES   REMARKS
GERALDTON      MOSUNNY   39  18  41 SE7       30.32F
THUNDER BAY    CLOUDY    36  25  64 E12       30.34F
SIOUX LOOKOUT  PTSUNNY   48  25  40 SE10      30.17F
TORONTO        CLOUDY    46  27  46 SE5       30.27S
BIG TROUT LK   CLOUDY    36  23  60 S13       30.25F
PICKLE LAKE    PTSUNNY   39  21  48 SE13      30.23F
DRYDEN         MOSUNNY   48  28  46 SE14G20   30.13F
KENORA         PTSUNNY   52  28  40 S13G20    30.07F
$$
                *** MANITOBA***

CITY           SKY/WX    TMP DP  RH WIND       PRES   REMARKS
BRANDON        CLOUDY    46  41  81 SE8       29.93F
DAUPHIN        LGT RAIN  39  36  87 NE3       29.91F
ISLAND LAKE    NOT AVBL
PILOT MOUND      N/A     43  41  93 S8          N/A
THE PAS        CLOUDY    37  32  81 SE9       29.90F
THOMPSON       CLOUDY    41  19  42 SE5       30.01F
WINNIPEG       CLOUDY    52  45  76 S16       30.00F
LYNN LAKE      CLOUDY    41  25  52 S9        29.95F
CHURCHILL      MOSUNNY   25  18  74 S10       30.18F WCI  15
GILLAM         MOSUNNY   43  19  39 S9        30.10F
$$
                ***SASKATCHEWAN***

CITY           SKY/WX    TMP DP  RH WIND       PRES   REMARKS
ESTEVAN        PTSUNNY   59  32  36 SW12G20   29.85F
KINDERSLEY     PTSUNNY   55  27  33 NW3       29.77F
LLOYDMINSTER   PTSUNNY   41  37  87 NE5       29.80F FOG
PRINCE ALBERT  PTSUNNY   43  36  75 CALM      29.82F
REGINA         PTSUNNY   59  30  33 W15       29.81R
YORKTON        MOSUNNY   52  43  71 SE15      29.80F
N. BATTLEFORD  CLOUDY    39  37  93 N3        29.84F FOG
LA RONGE       CLOUDY    34  32  93 NE8       29.87F
SASKATOON      MOSUNNY   52  37  58 NW8       29.81S
SWIFT CURRENT  SUNNY     57  19  23 W16       29.79F
$$
NOTE: THESE ARE AUTOMATED STATIONS WITH LIMITED QUALITY CONTROL
      "FAIR" INDICATES FEW OR NO CLOUDS BELOW 12,000 FEET WITH NO
      SIGNIFICANT WEATHER AND/OR OBSTRUCTIONS TO VISIBILITY.
      SKY/WX - SKY CONDITION AND SIGNIFICANT WEATHER.
      TMP - AIR TEMPERATURE.    DP   - DEWPOINT TEMPERATURE.
      RH  - RELATIVE HUMIDITY.  PRES - PRESSURE.
      HX  - HEAT INDEX.         WCI  - WIND CHILL INDEX.
$



USA.gov is the U.S. government's official web portal to all federal, state and local government web resources and services.